Regional Weather Roundup
Issued by NWS

Home | Current Version | Previous Version | Text Only | Print | Product List | Glossary Off
Versions: 1 2 3 4 5 6 7 8 9 10 11 12 13 14 15 16 17 18 19 20 21 22 23 24 25 26 27 28 29 30 31 32 33 34 35 36 37 38 39 40 41 42 43 44 45 46 47 48 49 50

000
ASUS43 KOAX 051502
RWRNE

WEATHER ROUNDUP FOR NEBRASKA
NATIONAL WEATHER SERVICE OMAHA NE
1000 AM CDT SUN JUL 05 2015

NOTES: SATELLITE DATA IS BEING USED TO AUGMENT CLOUD COVER ABOVE
       12000 FEET.
       "FAIR" INDICATES FEW OR NO CLOUDS BELOW 12,000 FEET WITH NO
       SIGNIFICANT WEATHER AND/OR OBSTRUCTIONS TO VISIBILITY.

  * THESE STATIONS DO NOT REPORT WEATHER SUCH AS RAIN...SNOW OR FOG.

NEZ001>004-019>022-054>056-051600-
NEBRASKA PANHANDLE

CITY           SKY/WX    TMP DP  RH WIND       PRES   REMARKS
SCOTTSBLUFF    MOSUNNY   78  64  61 CALM      29.87S
ALLIANCE         N/A     77  64  64 SW9       29.86R
CHADRON        MOSUNNY   78  67  68 NW3       29.79S
KIMBALL          N/A    N/A N/A N/A MISG        N/A
SIDNEY         SUNNY     83  57  41 SW7       29.91R
$$

NEZ057>060-069>072-079>082-051600-
SOUTHWEST NEBRASKA

CITY           SKY/WX    TMP DP  RH WIND       PRES   REMARKS
NORTH PLATTE   SUNNY     82  64  54 S12       29.84F
IMPERIAL       SUNNY     80  62  54 S7        29.85F
LEXINGTON      SUNNY     80  69  70 SE10      29.86S
MCCOOK         SUNNY     86  62  44 S12       29.84R
$$

NEZ005>010-023>029-035>040-094-051600-
NORTH CENTRAL NEBRASKA

CITY           SKY/WX    TMP DP  RH WIND       PRES   REMARKS
VALENTINE      SUNNY     82  66  58 S12       29.80R
AINSWORTH      SUNNY     81  67  61 S17G25    29.82S
BROKEN BOW     SUNNY     78  68  71 SE15G24   29.86F
O`NEILL        PTSUNNY   80  70  72 SE15G21   29.85S
ORD            PTSUNNY   71  66  84 SE15      29.86F
$$

NEZ041-046>049-061>064-073>077-083>087-051600-
SOUTH CENTRAL NEBRASKA

CITY           SKY/WX    TMP DP  RH WIND       PRES   REMARKS
GRAND ISLAND   PTSUNNY   77  68  73 E10       29.91S
AURORA         PTSUNNY   75  71  85 E9        29.91F
HASTINGS       SUNNY     76  69  79 S12       29.88S
KEARNEY *      SUNNY     79  68  69 S14       29.88R
$$

NEZ011>018-030>034-042>045-051600-
NORTHEAST NEBRASKA

CITY           SKY/WX    TMP DP  RH WIND       PRES   REMARKS
NORFOLK        PTSUNNY   74  63  68 SE12      29.89F
BLAIR          CLOUDY    69  64  83 NW6       29.98R
COLUMBUS *     CLOUDY    70  64  83 E10       29.93F
FREMONT        LGT RAIN  70  66  87 N5        29.99S
TEKAMAH        LGT RAIN  70  66  87 E7        29.97S FOG
$$

NEZ050>053-065>068-078-088>093-051600-
SOUTHEAST NEBRASKA

CITY           SKY/WX    TMP DP  RH WIND       PRES   REMARKS
LINCOLN        CLOUDY    75  69  81 S9        29.92F
OMAHA EPPLEY   CLOUDY    71  65  81 SE8       29.95R
FALLS CITY     CLOUDY    75  69  81 SE13      29.94F
PLATTSMOUTH    CLOUDY    70  65  84 SE12      29.94S HAZE
$$

NEZ044-045-051>053-067-051600-
OMAHA AREA

CITY           SKY/WX    TMP DP  RH WIND       PRES   REMARKS
OMAHA EPPLEY   CLOUDY    71  65  81 SE8       29.95R
BLAIR          CLOUDY    69  64  83 NW6       29.98R
FREMONT        LGT RAIN  70  66  87 N5        29.99S
MILLARD        CLOUDY    70  66  87 SE6       29.94S
OFFUTT AFB     CLOUDY    71  66  84 SE9       29.93F
PLATTSMOUTH    CLOUDY    70  65  84 SE12      29.94S HAZE
$$



USA.gov is the U.S. government's official web portal to all federal, state and local government web resources and services.